Location: Gipe Farm
(40.9466°N, 95.5370°W)
Time: 00:05:51
(UTC-05:00)

Daily predictions for brighter satellites

Satellite Brightness Start Highest point End
(mag) Time Altitude Azimuth Time Altitude Azimuth Time Altitude Azimuth
Cosmos 1420 Rocket 3.9 00:00:58 10° NNW 00:06:16 79° ENE 00:06:23 78° E
Cosmos 1048 Rocket 4.1 00:10:25 62° ENE 00:10:25 62° ENE 00:15:02 10° NNE
Meteor 1-21 4.0 00:09:37 76° S 00:10:04 86° E 00:15:49 10° N
Cosmos 1766 4.2 00:06:17 10° N 00:09:10 47° NNW 00:09:10 47° NNW
Cosmos 1833 Rocket 2.8 00:10:09 55° SW 00:11:17 71° WNW 00:16:56 10° NNE
Terra 3.1 00:11:45 29° WSW 00:12:05 29° W 00:16:14 10° NW
Cosmos 1452 Rocket 3.8 00:11:03 10° NNW 00:16:12 55° WSW 00:16:14 55° WSW
Spot 4 4.3 00:16:39 50° W 00:16:39 50° W 00:21:11 10° NNW
Cosmos 1656 3.8 00:12:14 10° NNW 00:17:34 56° WSW 00:17:39 56° WSW
Meteor 2-16 Rocket 4.4 00:14:17 10° NNW 00:20:25 73° W 00:21:15 64° SW
H-2A R/B 4.0 00:22:16 22° W 00:22:18 22° W 00:25:49 10° NW
Cosmos 1812 Rocket 4.2 00:19:18 10° NNW 00:23:07 51° WNW 00:23:07 51° WNW
ISS -1.2 00:25:09 21° N 00:25:09 21° N 00:27:12 10° NNE
BREEZE-M DEB (TANK) 4.0 00:35:06 30° NE 00:35:06 30° NE 00:38:38 10° ENE
Cosmos 1535 Rocket 4.4 00:29:02 10° N 00:35:08 67° E 00:35:35 65° ESE
ALOS 2 3.3 00:37:45 48° NNE 00:37:45 48° NNE 00:41:14 10° N
Cosmos 1980 Rocket 2.0 00:33:55 10° NNW 00:39:36 89° WNW 00:39:36 89° WNW
Cosmos 1953 Rocket 4.3 00:45:04 52° NNE 00:45:04 52° NNE 00:48:30 10° N
Timation 2 Rocket 4.2 00:43:44 49° WSW 00:45:17 64° WNW 00:51:26 10° NNE
ARGOS Delta rocket 4.2 00:41:27 10° NNE 00:46:19 70° ENE 00:46:19 70° ENE
Cosmos 2322 Rocket 3.1 00:42:04 10° N 00:47:25 39° ENE 00:48:24 36° E
Cosmos 1825 Rocket 4.4 00:49:14 47° NNW 00:49:14 47° NNW 00:52:33 10° N
USA 267 3.9 00:53:59 10° NE 01:00:16 52° NNW 01:06:33 10° WSW
CZ-2C R/B 3.2 01:03:52 72° WNW 01:03:52 72° WNW 01:09:09 10° NNW
SME Rocket 4.3 01:05:29 45° W 01:05:29 45° W 01:09:38 10° NNW
SeaSat 1 3.2 01:09:30 44° WNW 01:09:30 44° WNW 01:13:19 10° NW
CZ-4B R/B 4.2 01:10:59 15° NNE 01:10:59 15° NNE 01:11:48 10° NNE
NOSS 3-1 (C) 4.4 01:01:57 10° NNW 01:09:25 61° NE 01:13:14 33° ESE
Cosmos 2082 Rocket 4.1 01:06:39 16° W 01:09:46 24° NW 01:14:19 10° N
Cosmos 1953 4.1 01:08:19 10° NNW 01:10:40 28° NW 01:10:40 28° NW
Meteor 2-15 4.5 01:18:30 62° ESE 01:18:40 62° E 01:24:39 10° NNE
Cosmos 972 Rocket 4.2 01:13:44 10° NNW 01:18:22 66° NW 01:18:22 66° NW
Geosat 4.1 01:15:52 10° NNE 01:20:22 72° NNE 01:20:22 72° NNE
Cosmos 1934 Rocket 4.1 01:19:13 10° NNW 01:25:29 61° W 01:25:51 60° WSW
CZ-2C R/B 3.2 01:20:38 10° N 01:26:02 50° WNW 01:26:29 48° W
ATLAS CENTAUR R/B 3.1 01:25:54 10° NNW 01:28:00 27° N 01:28:00 27° N
Meteor 2-5 Rocket 3.7 01:30:24 86° SW 01:30:30 88° W 01:36:30 10° N
USA 229 DEB 4.0 01:26:09 10° NW 01:33:05 53° WSW 01:33:13 53° WSW
USA 229 3.9 01:26:15 10° NW 01:33:11 54° WSW 01:33:20 54° WSW
USA 234 3.1 01:32:58 60° SE 01:34:20 89° SW 01:40:55 10° NW
Cosmos-2242 4.3 01:30:34 10° NNW 01:33:22 35° NW 01:33:22 35° NW
SL-16 R/B 2.1 01:30:30 10° NNW 01:36:00 83° NW 01:36:00 83° NW
Cosmos 494 Rocket 4.2 01:37:26 61° NW 01:37:26 61° NW 01:42:13 10° NNE
H-2A R/B 3.9 01:34:23 10° NNE 01:37:06 33° ENE 01:37:06 33° ENE
Meteor 2-15 Rocket 4.3 01:38:58 75° SE 01:39:15 77° E 01:45:21 10° N
NOSS 3-1 (A) 4.2 01:32:27 10° NNW 01:40:03 69° NE 01:44:05 34° SE
Lacrosse 5 rocket 3.3 01:36:15 10° NNW 01:40:23 31° NNE 01:42:28 21° ENE
Cosmos 2221 3.6 01:51:56 10° N 01:55:22 40° NE 01:55:22 40° NE
Lacrosse 5 2.3 01:57:21 55° ENE 01:57:21 55° ENE 02:01:25 10° NE
Cosmos 2322 4.4 01:50:56 10° NNW 01:56:24 47° ENE 01:57:54 38° ESE
Cosmos 1842 Rocket 4.4 01:55:07 10° NNW 01:58:26 46° NW 01:58:26 46° NW
Cosmos 1833 4.2 01:59:46 67° E 01:59:46 67° E 02:05:16 10° NNE
Cosmos 2098 Rocket 4.4 01:56:56 10° NNW 01:59:48 34° WNW 01:59:48 34° WNW
ISS -0.4 02:00:19 10° NNW 02:01:55 13° N 02:03:31 10° NNE
Cosmos 1727 Rocket 4.2 02:02:32 53° W 02:03:06 55° W 02:09:14 10° N
Cosmos 1302 Rocket 4.4 02:01:03 10° NNW 02:05:27 53° WNW 02:05:27 53° WNW
In-Cosmos 22 4.0 02:06:46 80° E 02:06:46 80° E 02:12:11 10° NNE
COSMOS 2428 4.2 02:03:15 10° N 02:08:25 33° ENE 02:12:00 18° ESE
Cosmos 2219 4.3 02:10:48 31° ESE 02:11:02 32° ESE 02:15:57 10° NE
Meteor 2-17 Rocket 4.3 02:11:30 10° N 02:17:37 87° E 02:18:25 69° SSE
Cosmos 2360 Rocket 2.0 02:16:50 10° NNW 02:22:32 89° ENE 02:23:00 77° SSE
Cosmos 1992 Rocket 4.2 02:17:33 10° NNW 02:22:44 63° ENE 02:23:25 57° ESE
Cosmos 1076 Rocket 4.0 02:24:41 56° NE 02:24:41 56° NE 02:28:19 10° NNE
Cosmos 1908 4.2 02:21:46 10° N 02:24:47 46° NNE 02:24:47 46° NNE
Cosmos 1725 Rocket 4.5 02:19:57 10° N 02:26:09 55° E 02:28:17 39° SE
Meteor 1-24 Rocket 4.2 02:26:18 47° W 02:26:56 49° WNW 02:32:46 10° N
Cosmos 1000 Rocket 4.4 02:27:29 65° SW 02:28:25 77° W 02:34:46 10° N
Cosmos 2322 Rocket 3.4 02:26:24 10° NW 02:30:11 28° W 02:30:11 28° W
SL-08 R/B 4.5 02:27:35 10° N 02:33:43 75° E 02:35:11 53° SSE
Okean 3 Rocket 4.0 02:35:12 58° NW 02:35:12 58° NW 02:39:12 10° N
Cosmos 1356 Rocket 4.4 02:35:12 38° ENE 02:35:12 38° ENE 02:38:31 10° NNE
Cosmos 2173 Rocket 3.9 02:30:23 10° NNW 02:36:24 62° W 02:37:01 59° WSW
PSLV R/B 3.8 02:34:25 10° N 02:38:06 62° NNW 02:38:06 62° NNW
Cosmos 2333 Rocket 3.9 02:36:51 10° N 02:41:51 30° NE 02:46:46 10° ESE
Resurs 1-4 Rocket 4.1 02:40:32 10° NE 02:44:23 20° E 02:46:41 15° SE
CZ-2D R/B 4.0 02:44:42 10° NE 02:48:36 21° E 02:50:52 16° SE
SL-16 R/B 3.7 02:52:29 10° SE 02:58:07 39° ENE 03:03:46 10° N
SL-8 R/B 4.1 02:59:49 48° SE 02:59:49 48° SE 03:04:02 10° ENE
Cosmos 2297 Rocket 4.0 02:58:57 16° SE 03:01:23 21° E 03:05:28 10° NE
Cosmos 1408 Rocket 3.6 03:03:08 68° WNW 03:03:08 68° WNW 03:07:22 10° N
Cosmos 1802 Rocket 4.4 02:57:43 10° NNW 03:03:38 44° W 03:04:31 41° WSW
Cosmos 1340 Rocket 4.0 03:06:07 31° NW 03:06:07 31° NW 03:09:03 10° N
ERBS 4.4 03:07:24 21° E 03:07:24 21° E 03:09:07 10° ENE
Cosmos 1766 Rocket 3.7 03:06:27 60° WNW 03:06:27 60° WNW 03:10:43 10° N
Cosmos 1864 Rocket 4.4 03:00:34 10° N 03:06:49 74° W 03:08:38 48° SSW
Cosmos 1500 Rocket 4.3 03:07:23 39° SE 03:08:14 45° E 03:12:27 10° NNE
ATLAS 3B CENTAUR R/B 4.1 03:05:21 33° SSW 03:08:43 38° S 03:15:20 10° ESE
Meteor 1-21 Rocket 4.5 03:07:42 48° WSW 03:08:57 59° WNW 03:14:48 10° N
Cosmos 2219 Rocket 2.7 03:03:26 10° NNW 03:09:03 57° ENE 03:13:56 14° SE
Cosmos 1674 3.9 03:12:42 32° NW 03:12:42 32° NW 03:15:37 10° N
H-2A R/B 4.5 03:10:50 10° NNW 03:13:37 17° WNW 03:13:44 17° WNW
Cosmos 1328 3.8 03:14:58 72° ESE 03:15:04 73° E 03:19:02 10° NNE
Cosmos 1626 4.1 03:15:14 20° ESE 03:16:20 23° E 03:19:19 10° NE
Meteor 2-2 Rocket 4.1 03:11:04 10° N 03:16:45 90° WSW 03:18:47 42° S
GPS 2-04 Rocket1 4.4 03:19:42 24° SE 03:19:42 24° SE 03:21:48 10° ESE
Lacrosse 5 rocket 2.7 03:15:24 10° NW 03:18:04 31° WNW 03:18:04 31° WNW
Cosmos 2237 Rocket 3.4 03:15:57 10° N 03:21:17 41° ENE 03:26:33 10° SE
Cosmos 1140 Rocket 4.2 03:20:46 32° SSE 03:22:38 46° ESE 03:27:37 10° NNE
CZ-3A R/B 4.4 03:21:54 13° SSE 03:23:29 14° SE 03:29:13 10° ESE
Cosmos 1300 2.5 03:23:33 10° N 03:27:24 79° W 03:27:24 79° W
Cosmos 1515 Rocket 3.5 03:23:04 10° N 03:27:32 83° E 03:28:38 50° SSE
Cosmos 1743 Rocket 3.5 03:27:31 62° SSW 03:28:12 77° W 03:32:40 10° N
NOSS 2-1 (D) 4.3 03:29:44 32° SE 03:30:13 33° ESE 03:33:53 10° NE
NOSS 2-1 (C) 4.4 03:29:53 31° SE 03:30:23 32° ESE 03:34:01 10° NE
IRS-P3 4.2 03:25:22 10° N 03:30:39 64° WNW 03:32:12 44° SW
ATLAS 2AS CENTAUR R/B 3.0 03:23:25 10° NNW 03:31:30 84° NE 03:38:55 10° SE
CBERS-1 4.0 03:26:35 10° N 03:31:41 73° WNW 03:33:10 46° SW
Helios 1A Rocket 4.4 03:32:36 10° NNW 03:35:55 23° WNW 03:36:15 23° WNW
Cosmos 2227 Rocket 2.6 03:35:24 31° S 03:37:57 55° ESE 03:43:29 10° NNE
NOSS 3-3 (A) 4.0 03:35:33 38° SSW 03:38:07 80° ESE 03:44:45 10° NE
NOSS 3-3 (C) 4.0 03:35:38 38° SSW 03:38:12 79° ESE 03:44:51 10° NE
BREEZE-M DEB (TANK) 4.1 03:30:24 21° WSW 03:38:18 89° SSE 03:42:24 10° ENE
NPP 3.8 03:33:13 10° N 03:38:31 59° WNW 03:40:19 39° SW
ISS -1.0 03:36:51 10° NNW 03:39:23 20° NNE 03:41:54 10° ENE
Lacrosse 5 3.6 03:36:32 15° WNW 03:39:45 27° NNW 03:44:02 10° NNE
ARIANE 5 R/B 2.8 03:36:28 10° NNE 03:41:32 60° E 03:44:04 28° S
Cosmos 1954 Rocket 3.9 03:40:38 40° SSW 03:42:37 89° ESE 03:47:54 10° NNE
Cosmos 1726 3.1 03:41:41 10° NNW 03:44:41 33° WNW 03:44:41 33° WNW
Cosmos 407 Rocket 4.0 03:44:12 35° WSW 03:45:49 47° WNW 03:50:49 10° N
ADEOS Rocket 3.5 03:41:50 10° NNE 03:49:12 90° ESE 03:54:18 24° SSW
Cosmos 2228 Rocket 3.5 03:45:34 10° NNW 03:49:48 42° W 03:50:27 39° WSW
Meteor 1-27 4.2 03:45:13 10° N 03:51:03 89° E 03:55:27 18° S
Meteor 1-11 4.2 03:48:29 32° SSW 03:51:15 85° W 03:57:01 10° N
Cosmos 2058 2.8 03:50:53 45° S 03:52:06 86° WNW 03:56:14 10° N
COSMOS 2428 3.3 03:47:29 10° NW 03:52:41 37° WSW 03:53:57 33° SW
NOSS 2-1 (E) 3.7 03:51:58 39° S 03:53:01 52° ESE 03:57:07 10° NE
Cosmos 1023 Rocket 4.4 03:50:51 35° SSW 03:53:10 90° ESE 03:58:25 10° NNE
Cosmos 2219 4.1 03:52:43 26° WSW 03:55:04 36° WNW 04:00:15 10° N
Cosmos 676 Rocket 4.3 03:55:12 34° SW 03:57:19 55° WNW 04:02:33 10° N
Cosmos 1242 Rocket 4.5 03:56:36 10° NW 03:58:10 17° WNW 03:58:10 17° WNW
ERS-1 4.5 03:54:06 10° N 03:59:12 76° WNW 04:01:44 30° SSW
Cosmos 2082 3.7 04:02:06 27° SSW 04:05:17 80° ESE 04:10:56 10° NNE
Cosmos 2360 Rocket 4.2 04:03:49 10° WNW 04:04:43 11° W 04:04:43 11° W
Cosmos 1072 Rocket 4.4 04:01:15 10° N 04:07:24 81° W 04:12:50 14° S
Spot 4 Rocket 4.1 04:03:43 10° N 04:08:48 62° WNW 04:11:29 27° SW
SL-08 R/B 4.4 04:10:18 26° WSW 04:11:12 27° W 04:15:25 10° NW
Cosmos 1455 2.4 04:07:27 10° N 04:11:20 73° E 04:14:27 15° SSE
Cosmos 1703 3.3 04:11:15 35° SSW 04:12:42 63° W 04:16:36 10° N
Cosmos 2208 Rocket 4.4 04:09:15 10° NNW 04:14:24 64° ENE 04:19:35 10° SSE
CZ-2D R/B 3.8 04:12:12 10° NNE 04:16:10 58° E 04:19:09 17° S
Lacrosse 4 Rocket 3.7 04:13:45 10° SSE 04:16:33 18° ESE 04:19:23 10° ENE
MOZ.5/SAFIR/RUBIN 5/SL-8 3.9 04:16:18 10° SSE 04:21:03 80° ENE 04:25:50 10° N
Cosmos 1151 Rocket 3.9 04:17:32 10° NNW 04:21:24 32° W 04:22:47 26° SW
Cosmos 2151 3.9 04:20:03 26° WSW 04:21:28 32° WNW 04:25:17 10° NNW
Resurs 1-4 Rocket 2.4 04:19:20 10° N 04:24:28 51° WNW 04:27:46 21° SW
IRS-1D 4.0 04:20:20 10° N 04:25:30 49° WNW 04:28:48 21° SW
Cosmos 2333 Rocket 2.6 04:20:54 10° NW 04:26:13 41° WSW 04:31:07 12° S
Cosmos 1707 Rocket 3.6 04:23:34 10° N 04:27:57 78° E 04:32:19 10° S
CZ-2D R/B 2.5 04:23:55 10° N 04:28:53 47° WNW 04:32:11 20° SW
UNKNOWN OBJECT B 2.8 04:25:19 10° N 04:29:22 80° WNW 04:32:06 20° SSW
Cosmos 1464 Rocket 4.1 04:23:55 10° NNW 04:29:58 58° W 04:35:45 11° S
CZ-3 R/B 4.2 03:42:58 10° WSW 04:30:54 56° S 04:41:39 10° ESE
NOSS 7 (H) 4.3 04:36:52 24° SW 04:38:43 75° WNW 04:42:06 10° NNE
MOS 1 Rocket 3.5 04:34:00 10° N 04:39:04 85° WNW 04:44:10 11° SSW
ADEOS 4.2 04:34:26 10° N 04:39:18 40° WNW 04:42:52 17° SW
ADEOS II 3.5 04:35:16 10° NNE 04:40:07 36° E 04:44:56 10° SSE
SL-16 R/B 3.2 04:37:30 16° SSW 04:41:45 33° W 04:47:16 10° NNW
Cosmos 1241 Rocket 4.5 04:35:22 10° NNW 04:41:52 88° WSW 04:48:10 10° SSE
Cosmos 1666 Rocket 3.5 04:38:04 13° S 04:41:58 83° W 04:46:25 10° N
SL-8 R/B 4.4 04:37:46 12° W 04:41:59 49° NNW 04:46:40 10° NE
ERBS 3.7 04:40:42 15° W 04:42:52 29° NW 04:45:54 10° NNE
Cosmos 2297 Rocket 2.5 04:40:46 17° SW 04:44:57 54° WNW 04:50:31 10° NNE
Cosmos 1980 4.2 04:40:01 10° NW 04:45:13 38° WSW 04:50:24 10° S
Cosmos 1356 4.5 04:49:32 18° SW 04:51:30 30° WNW 04:54:39 10° NNW
Cosmos 1626 3.7 04:49:54 16° WSW 04:51:37 21° WNW 04:54:30 10° NNW
Cosmos 2219 Rocket 3.5 04:48:30 10° NW 04:52:30 20° W 04:55:32 13° SW
Aureole 2 Rocket 3.9 04:49:52 10° NW 04:53:15 26° WSW 04:56:29 11° SSW
GPS 2-04 Rocket1 3.4 04:54:10 14° WSW 04:57:24 38° S 05:01:24 10° ESE
Okean O Rocket 2.6 04:53:14 10° NNE 04:57:26 45° E 05:01:35 10° S
BREEZE-M DEB 2.8 04:55:06 12° WSW 04:58:41 46° NNW 05:00:46 10° NE
Cosmos 1805 Rocket 4.4 04:56:01 14° SW 04:59:24 35° WNW 05:03:30 10° N
GP-B 4.3 04:55:55 10° NNE 05:00:11 45° E 05:04:26 10° SSE
SL-16 R/B 2.2 04:57:34 10° NNW 05:03:15 71° WSW 05:08:52 10° SSE
CZ-4B R/B 3.7 04:58:55 10° NNE 05:03:20 57° E 05:07:33 10° S
Cosmos 2237 Rocket 3.1 05:00:24 10° NW 05:05:06 28° WSW 05:09:46 10° SSW
CZ-4B R/B 4.1 05:00:30 10° NNE 05:05:37 48° E 05:10:47 10° S
Cosmos 1400 Rocket 4.2 05:06:11 10° SSE 05:09:47 38° E 05:13:26 10° NNE
USA 161 2.4 05:13:32 12° SW 05:14:37 16° W 05:16:02 10° NW
ISS -3.9 05:12:56 10° NW 05:16:12 82° SW 05:19:28 10° SE
ARIANE 5 R/B 4.3 05:16:53 10° NNW 05:20:08 17° WNW 05:23:21 10° WSW
ATLAS 2AS CENTAUR R/B 4.0 05:16:04 10° WNW 05:21:30 21° WSW 05:26:39 10° SSW
Cosmos 332 Rocket 3.9 05:17:10 10° NNW 05:22:01 83° ENE 05:26:53 10° SSE
Cosmos 2227 Rocket 3.7 05:17:55 10° WSW 05:22:21 23° NW 05:26:50 10° N
NOSS 3-4 (A) 3.9 05:15:41 10° NW 05:22:46 88° WSW 05:30:20 10° SSE
NOSS 3-4 (C) 3.9 05:15:48 10° NW 05:22:53 89° SW 05:30:26 10° SSE
Lacrosse 5 4.4 05:21:57 10° NW 05:24:20 13° N 05:26:43 10° NNE
PAYLOAD B 4.4 05:19:51 10° NNE 05:25:24 82° ESE 05:30:54 10° SSW
Cosmos 1470 Rocket 3.6 05:21:53 10° SSW 05:26:10 66° W 05:30:29 10° N
ATLAS 5 CENTAUR R/B 4.1 05:24:12 10° SSE 05:27:35 20° ESE 05:31:09 10° ENE
Cosmos 1633 Rocket 4.1 05:26:54 10° SW 05:30:43 29° WNW 05:34:33 10° NNW
USA 215 3.7 05:26:52 10° NE 05:33:20 60° SE 05:39:45 10° SSW
